Home   Weather   Fullerton   Past weeks

Flag for USA Past Weather in Fullerton, California, USA — Yesterday and Last 2 Weeks

Now
69 °F

Clear.


Feels Like: 69 °F
Forecast: 68 / 80 °F
Wind: No wind

Location: Fullerton Municipal Airport

Current Time: Jul 24, 2017 at 5:57:22 am

Latest Report: Jul 24, 2017 at 4:53 am


Visibility: 10 mi

Pressure: 29.86 "Hg

Humidity: 84%

Dew Point: 64 °F

Location of FullertonLocation

Past Weather in Fullerton — Graph

°F

Fullerton Temperature Yesterday

Maximum temperature yesterday: 85 °F (at 1:53 pm)
Minimum temperature yesterday: 70 °F (at 12:40 am)
Average temperature yesterday: 74 °F

High & Low Weather Summary for the Past Weeks

 TemperatureHumidityPressure
High95 °F (Jul 9, 11:53 am)90% (Jul 16, 4:53 am)30.02 "Hg (Jul 16, 4:53 am)
Low66 °F (Jul 14, 4:53 am)30% (Jul 9, 11:53 am)29.80 "Hg (Jul 23, 4:53 pm)
Average76 °F70%29.91 "Hg
* Reported Jul 9 3:53 am — Jul 24 3:53 am, Fullerton. Weather by CustomWeather, © 2017

Note: Actual official high and low records may vary slightly from our data, if they occured in-between our weather recording intervals... More about our weather records

Advertising

Fullerton Weather History for the Previous 24 Hours

Scroll right to see more
 ConditionsComfort  
Time TempWeatherWind HumidityBarometerVisibility
3:53 am
Mon, Jul 24
69 °FClear.No wind84%29.86 "Hg10 mi
2:53 am70 °FClear.No wind81%29.87 "Hg10 mi
1:53 am70 °FClear.No wind81%29.88 "Hg10 mi
1:00 am70 °FPassing clouds.3 mph81%29.89 "Hg10 mi
11:53 pm
Sun, Jul 23
70 °FOvercast.No wind81%29.89 "Hg10 mi
11:33 pm70 °FPassing clouds.No wind81%29.90 "Hg10 mi
10:53 pm70 °FClear.No wind81%29.90 "Hg10 mi
10:20 pm70 °FPassing clouds.No wind81%29.90 "Hg10 mi
9:53 pm70 °FOvercast.3 mph81%29.90 "Hg10 mi
9:44 pm70 °FPassing clouds.6 mph81%29.90 "Hg10 mi
8:53 pm70 °FClear.6 mph81%29.87 "Hg10 mi
7:53 pm72 °FSunny.6 mph76%29.84 "Hg10 mi
6:53 pm76 °FSunny.9 mph64%29.80 "Hg10 mi
5:53 pm80 °FSunny.8 mph49%29.80 "Hg10 mi
4:53 pm82 °FPassing clouds.10 mph49%29.80 "Hg10 mi
3:53 pm82 °FSunny.10 mph56%29.80 "Hg10 mi
2:53 pm85 °FPassing clouds.9 mph53%29.82 "Hg10 mi
1:53 pm85 °FPassing clouds.5 mph53%29.83 "Hg10 mi
12:53 pm84 °FScattered clouds.7 mph53%29.85 "Hg10 mi
11:53 am83 °FScattered clouds.6 mph57%29.87 "Hg10 mi
10:53 am80 °FPassing clouds.No wind60%29.88 "Hg10 mi
9:53 am77 °FPassing clouds.5 mph69%29.88 "Hg10 mi
8:53 am75 °FMild.3 mph74%29.88 "Hg9 mi
7:53 am73 °FSunny.No wind79%29.87 "Hg9 mi
6:53 am71 °FMild.No wind81%29.87 "Hg8 mi
6:38 am71 °FMild.No wind81%29.87 "Hg8 mi
5:53 am70 °FOvercast.No wind84%29.85 "Hg9 mi
Weather by CustomWeather, © 2017

See weather overviewHow to use our weather pages